Year,Month,Day,Hour,Minute,Value (Times are PST for temperature in C)
2019,03,30,00,00,7.30
2019,03,30,00,01,7.40
2019,03,30,00,02,7.40
2019,03,30,00,03,7.50
2019,03,30,00,04,7.60
2019,03,30,00,05,7.70
2019,03,30,00,06,7.80
2019,03,30,00,07,7.80
2019,03,30,00,08,7.90
2019,03,30,00,09,8.10
2019,03,30,00,10,8.10
2019,03,30,00,11,8.20
2019,03,30,00,12,8.30
2019,03,30,00,13,8.30
2019,03,30,00,14,8.30
2019,03,30,00,15,8.30
2019,03,30,00,16,8.40
2019,03,30,00,17,8.50
2019,03,30,00,18,8.60
2019,03,30,00,19,8.60
2019,03,30,00,20,8.60
2019,03,30,00,21,8.60
2019,03,30,00,22,8.60
2019,03,30,00,23,8.60
2019,03,30,00,24,8.50
2019,03,30,00,25,8.50
2019,03,30,00,26,8.40
2019,03,30,00,27,8.30
2019,03,30,00,28,8.30
2019,03,30,00,29,8.30
2019,03,30,00,30,8.30
2019,03,30,00,31,8.30
2019,03,30,00,32,8.30
2019,03,30,00,33,8.20
2019,03,30,00,34,8.10
2019,03,30,00,35,8.00
2019,03,30,00,36,7.90
2019,03,30,00,37,7.80
2019,03,30,00,38,7.80
2019,03,30,00,39,7.70
2019,03,30,00,40,7.70
2019,03,30,00,41,7.60
2019,03,30,00,42,7.70
2019,03,30,00,43,7.70
2019,03,30,00,44,7.80
2019,03,30,00,45,7.80
2019,03,30,00,46,7.90
2019,03,30,00,47,7.90
2019,03,30,00,48,7.90
2019,03,30,00,49,7.90
2019,03,30,00,50,7.80
2019,03,30,00,51,7.80
2019,03,30,00,52,7.80
2019,03,30,00,53,7.80
2019,03,30,00,54,7.80
2019,03,30,00,55,7.80
2019,03,30,00,56,7.80
2019,03,30,00,57,7.80
2019,03,30,00,58,7.80
2019,03,30,00,59,7.90
2019,03,30,01,00,8.00
2019,03,30,01,01,8.00
2019,03,30,01,02,8.10
2019,03,30,01,03,8.20
2019,03,30,01,04,8.20
2019,03,30,01,05,8.30
2019,03,30,01,06,8.30
2019,03,30,01,07,8.40
2019,03,30,01,08,8.40
2019,03,30,01,09,8.40
2019,03,30,01,10,8.50
2019,03,30,01,11,8.50
2019,03,30,01,12,8.50
2019,03,30,01,13,8.50
2019,03,30,01,14,8.50
2019,03,30,01,15,8.50
2019,03,30,01,16,8.40
2019,03,30,01,17,8.30
2019,03,30,01,18,8.30
2019,03,30,01,19,8.20
2019,03,30,01,20,8.20
2019,03,30,01,21,8.20
2019,03,30,01,22,8.20
2019,03,30,01,23,8.10
2019,03,30,01,24,8.10
2019,03,30,01,25,8.00
2019,03,30,01,26,8.00
2019,03,30,01,27,7.90
2019,03,30,01,28,7.80
2019,03,30,01,29,7.70
2019,03,30,01,30,7.60
2019,03,30,01,31,7.50
2019,03,30,01,32,7.40
2019,03,30,01,33,7.40
2019,03,30,01,34,7.30
2019,03,30,01,35,7.30
2019,03,30,01,36,7.20
2019,03,30,01,37,7.20
2019,03,30,01,38,7.10
2019,03,30,01,39,7.10
2019,03,30,01,40,7.10
2019,03,30,01,41,7.10
2019,03,30,01,42,7.10
2019,03,30,01,43,7.10
2019,03,30,01,44,7.00
2019,03,30,01,45,7.00
2019,03,30,01,46,7.00
2019,03,30,01,47,7.00
2019,03,30,01,48,6.90
2019,03,30,01,49,6.80
2019,03,30,01,50,6.80
2019,03,30,01,51,6.80
2019,03,30,01,52,6.90
2019,03,30,01,53,6.90
2019,03,30,01,54,6.90
2019,03,30,01,55,6.90
2019,03,30,01,56,6.90
2019,03,30,01,57,6.80
2019,03,30,01,58,6.80
2019,03,30,01,59,6.80
2019,03,30,02,00,6.70
2019,03,30,02,01,6.70
2019,03,30,02,02,6.70
2019,03,30,02,03,6.70
2019,03,30,02,04,6.60
2019,03,30,02,05,6.60
2019,03,30,02,06,6.70
2019,03,30,02,07,6.70
2019,03,30,02,08,6.70
2019,03,30,02,09,6.70
2019,03,30,02,10,6.80
2019,03,30,02,11,6.80
2019,03,30,02,12,6.80
2019,03,30,02,13,6.80
2019,03,30,02,14,6.80
2019,03,30,02,15,6.80
2019,03,30,02,16,6.80
2019,03,30,02,17,6.80
2019,03,30,02,18,6.80
2019,03,30,02,19,6.80
2019,03,30,02,20,6.80
2019,03,30,02,21,6.80
2019,03,30,02,22,6.80
2019,03,30,02,23,6.80
2019,03,30,02,24,6.90
2019,03,30,02,25,6.90
2019,03,30,02,26,7.00
2019,03,30,02,27,7.10
2019,03,30,02,28,7.10
2019,03,30,02,29,7.20
2019,03,30,02,30,7.20
2019,03,30,02,31,7.20
2019,03,30,02,32,7.20
2019,03,30,02,33,7.30
2019,03,30,02,34,7.30
2019,03,30,02,35,7.30
2019,03,30,02,36,7.30
2019,03,30,02,37,7.20
2019,03,30,02,38,7.20
2019,03,30,02,39,7.10
2019,03,30,02,40,7.10
2019,03,30,02,41,7.00
2019,03,30,02,42,6.90
2019,03,30,02,43,6.90
2019,03,30,02,44,6.80
2019,03,30,02,45,6.80
2019,03,30,02,46,6.80
2019,03,30,02,47,6.80
2019,03,30,02,48,6.70
2019,03,30,02,49,6.70
2019,03,30,02,50,6.70
2019,03,30,02,51,6.60
2019,03,30,02,52,6.60
2019,03,30,02,53,6.50
2019,03,30,02,54,6.40
2019,03,30,02,55,6.40
2019,03,30,02,56,6.30
2019,03,30,02,57,6.30
2019,03,30,02,58,6.30
2019,03,30,02,59,6.30
2019,03,30,03,00,6.20
2019,03,30,03,01,6.20
2019,03,30,03,02,6.20
2019,03,30,03,03,6.20
2019,03,30,03,04,6.10
2019,03,30,03,05,6.10
2019,03,30,03,06,6.10
2019,03,30,03,07,6.10
2019,03,30,03,08,6.00
2019,03,30,03,09,6.00
2019,03,30,03,10,5.90
2019,03,30,03,11,5.90
2019,03,30,03,12,5.80
2019,03,30,03,13,5.80
2019,03,30,03,14,5.80
2019,03,30,03,15,5.80
2019,03,30,03,16,5.80
2019,03,30,03,17,5.80
2019,03,30,03,18,5.70
2019,03,30,03,19,5.70
2019,03,30,03,20,5.70
2019,03,30,03,21,5.70
2019,03,30,03,22,5.70
2019,03,30,03,23,5.70
2019,03,30,03,24,5.70
2019,03,30,03,25,5.70
2019,03,30,03,26,5.70
2019,03,30,03,27,5.70
2019,03,30,03,28,5.80
2019,03,30,03,29,5.80
2019,03,30,03,30,5.90
2019,03,30,03,31,5.90
2019,03,30,03,32,5.90
2019,03,30,03,33,5.90
2019,03,30,03,34,5.90
2019,03,30,03,35,5.80
2019,03,30,03,36,5.80
2019,03,30,03,37,5.80
2019,03,30,03,38,5.80
2019,03,30,03,39,5.90
2019,03,30,03,40,5.90
2019,03,30,03,41,6.00
2019,03,30,03,42,6.00
2019,03,30,03,43,6.10
2019,03,30,03,44,6.10
2019,03,30,03,45,6.20
2019,03,30,03,46,6.10
2019,03,30,03,47,6.10
2019,03,30,03,48,6.00
2019,03,30,03,49,6.00
2019,03,30,03,50,6.00
2019,03,30,03,51,6.10
2019,03,30,03,52,6.10
2019,03,30,03,53,6.10
2019,03,30,03,54,6.10
2019,03,30,03,55,6.00
2019,03,30,03,56,6.00
2019,03,30,03,57,5.90
2019,03,30,03,58,5.90
2019,03,30,03,59,6.00
2019,03,30,04,00,5.90
2019,03,30,04,01,5.90
2019,03,30,04,02,5.80
2019,03,30,04,03,5.70
2019,03,30,04,04,5.60
2019,03,30,04,05,5.50
2019,03,30,04,06,5.40
2019,03,30,04,07,5.20
2019,03,30,04,08,5.10
2019,03,30,04,09,5.10
2019,03,30,04,10,5.10
2019,03,30,04,11,5.10
2019,03,30,04,12,5.00
2019,03,30,04,13,5.00
2019,03,30,04,14,4.90
2019,03,30,04,15,4.90
2019,03,30,04,16,4.80
2019,03,30,04,17,4.80
2019,03,30,04,18,4.80
2019,03,30,04,19,4.80
2019,03,30,04,20,4.90
2019,03,30,04,21,5.00
2019,03,30,04,22,5.10
2019,03,30,04,23,5.20
2019,03,30,04,24,5.30
2019,03,30,04,25,5.30
2019,03,30,04,26,5.40
2019,03,30,04,27,5.40
2019,03,30,04,28,5.50
2019,03,30,04,29,5.50
2019,03,30,04,30,5.40
2019,03,30,04,31,5.40
2019,03,30,04,32,5.40
2019,03,30,04,33,5.40
2019,03,30,04,34,5.40
2019,03,30,04,35,5.40
2019,03,30,04,36,5.50
2019,03,30,04,37,5.50
2019,03,30,04,38,5.50
2019,03,30,04,39,5.60
2019,03,30,04,40,5.50
2019,03,30,04,41,5.40
2019,03,30,04,42,5.30
2019,03,30,04,43,5.20
2019,03,30,04,44,5.20
2019,03,30,04,45,5.10
2019,03,30,04,46,5.00
2019,03,30,04,47,5.00
2019,03,30,04,48,4.90
2019,03,30,04,49,4.90
2019,03,30,04,50,4.90
2019,03,30,04,51,4.80
2019,03,30,04,52,4.80
2019,03,30,04,53,4.80
2019,03,30,04,54,4.80
2019,03,30,04,55,4.80
2019,03,30,04,56,4.70
2019,03,30,04,57,4.60
2019,03,30,04,58,4.50
2019,03,30,04,59,4.50
2019,03,30,05,00,4.40
2019,03,30,05,01,4.30
2019,03,30,05,02,4.30
2019,03,30,05,03,4.20
2019,03,30,05,04,4.20
2019,03,30,05,05,4.10
2019,03,30,05,06,4.00
2019,03,30,05,07,3.90
2019,03,30,05,08,3.90
2019,03,30,05,09,3.90
2019,03,30,05,10,3.90
2019,03,30,05,11,4.00
2019,03,30,05,12,4.00
2019,03,30,05,13,4.00
2019,03,30,05,14,4.00
2019,03,30,05,15,3.90
2019,03,30,05,16,3.80
2019,03,30,05,17,3.60
2019,03,30,05,18,3.50
2019,03,30,05,19,3.40
2019,03,30,05,20,3.30
2019,03,30,05,21,3.30
2019,03,30,05,22,3.20
2019,03,30,05,23,3.30
2019,03,30,05,24,3.30
2019,03,30,05,25,3.30
2019,03,30,05,26,3.40
2019,03,30,05,27,3.40
2019,03,30,05,28,3.40
2019,03,30,05,29,3.50
2019,03,30,05,30,3.50
2019,03,30,05,31,3.50
2019,03,30,05,32,3.60
2019,03,30,05,33,3.60
2019,03,30,05,34,3.60
2019,03,30,05,35,3.50
2019,03,30,05,36,3.50
2019,03,30,05,37,3.40
2019,03,30,05,38,3.30
2019,03,30,05,39,3.20
2019,03,30,05,40,3.10
2019,03,30,05,41,3.10
2019,03,30,05,42,3.10
2019,03,30,05,43,3.20
2019,03,30,05,44,3.20
2019,03,30,05,45,3.20
2019,03,30,05,46,3.20
2019,03,30,05,47,3.20
2019,03,30,05,48,3.20
2019,03,30,05,49,3.20
2019,03,30,05,50,3.20
2019,03,30,05,51,3.10
2019,03,30,05,52,3.10
2019,03,30,05,53,3.20
2019,03,30,05,54,3.20
2019,03,30,05,55,3.10
2019,03,30,05,56,3.10
2019,03,30,05,57,3.10
2019,03,30,05,58,3.10
2019,03,30,05,59,3.10
2019,03,30,06,00,3.10
2019,03,30,06,01,3.20
2019,03,30,06,02,3.20
2019,03,30,06,03,3.10
2019,03,30,06,04,3.10
2019,03,30,06,05,3.00
2019,03,30,06,06,2.90
2019,03,30,06,07,2.90
2019,03,30,06,08,2.90
2019,03,30,06,09,2.80
2019,03,30,06,10,2.80
2019,03,30,06,11,2.80
2019,03,30,06,12,2.80
2019,03,30,06,13,2.80
2019,03,30,06,14,2.80
2019,03,30,06,15,2.80
2019,03,30,06,16,2.80
2019,03,30,06,17,2.80
2019,03,30,06,18,2.70
2019,03,30,06,19,2.70
2019,03,30,06,20,2.60
2019,03,30,06,21,2.60
2019,03,30,06,22,2.60
2019,03,30,06,23,2.60
2019,03,30,06,24,2.60
2019,03,30,06,25,2.60
2019,03,30,06,26,2.60
2019,03,30,06,27,2.70
2019,03,30,06,28,2.80
2019,03,30,06,29,2.90
2019,03,30,06,30,2.90
2019,03,30,06,31,3.00
2019,03,30,06,32,3.00
2019,03,30,06,33,3.00
2019,03,30,06,34,3.10
2019,03,30,06,35,3.10
2019,03,30,06,36,3.10
2019,03,30,06,37,3.00
2019,03,30,06,38,2.90
2019,03,30,06,39,2.80
2019,03,30,06,40,2.80
2019,03,30,06,41,2.70
2019,03,30,06,42,2.70
2019,03,30,06,43,2.60
2019,03,30,06,44,2.60
2019,03,30,06,45,2.50
2019,03,30,06,46,2.40
2019,03,30,06,47,2.30
2019,03,30,06,48,2.30
2019,03,30,06,49,2.30
2019,03,30,06,50,2.30
2019,03,30,06,51,2.30
2019,03,30,06,52,2.30
2019,03,30,06,53,2.30
2019,03,30,06,54,2.40
2019,03,30,06,55,2.40
2019,03,30,06,56,2.30
2019,03,30,06,57,2.30
2019,03,30,06,58,2.20
2019,03,30,06,59,2.20
2019,03,30,07,00,2.10
2019,03,30,07,01,2.10
2019,03,30,07,02,2.10
2019,03,30,07,03,2.00
2019,03,30,07,04,2.00
2019,03,30,07,05,1.90
2019,03,30,07,06,2.00
2019,03,30,07,07,2.00
2019,03,30,07,08,2.10
2019,03,30,07,09,2.20
2019,03,30,07,10,2.30
2019,03,30,07,11,2.40
2019,03,30,07,12,2.40
2019,03,30,07,13,2.40
2019,03,30,07,14,2.50
2019,03,30,07,15,2.50
2019,03,30,07,16,2.50
2019,03,30,07,17,2.50
2019,03,30,07,18,2.50
2019,03,30,07,19,2.50
2019,03,30,07,20,2.60
2019,03,30,07,21,2.70
2019,03,30,07,22,2.80
2019,03,30,07,23,2.90
2019,03,30,07,24,3.00
2019,03,30,07,25,3.10
2019,03,30,07,26,3.10
2019,03,30,07,27,3.10
2019,03,30,07,28,3.10
2019,03,30,07,29,3.00
2019,03,30,07,30,3.00
2019,03,30,07,31,2.90
2019,03,30,07,32,2.90
2019,03,30,07,33,2.90
2019,03,30,07,34,2.90
2019,03,30,07,35,2.90
2019,03,30,07,36,2.90
2019,03,30,07,37,2.90
2019,03,30,07,38,3.00
2019,03,30,07,39,3.00
2019,03,30,07,40,3.00
2019,03,30,07,41,3.00
2019,03,30,07,42,3.10
2019,03,30,07,43,3.10
2019,03,30,07,44,3.20
2019,03,30,07,45,3.20
2019,03,30,07,46,3.20
2019,03,30,07,47,3.20
2019,03,30,07,48,3.30
2019,03,30,07,49,3.30
2019,03,30,07,50,3.40
2019,03,30,07,51,3.50
2019,03,30,07,52,3.60
2019,03,30,07,53,3.70
2019,03,30,07,54,3.80
2019,03,30,07,55,3.90
2019,03,30,07,56,3.90
2019,03,30,07,57,4.00
2019,03,30,07,58,4.10
2019,03,30,07,59,4.10
2019,03,30,08,00,4.20
2019,03,30,08,01,4.20
2019,03,30,08,02,4.30
2019,03,30,08,03,4.30
2019,03,30,08,04,4.40
2019,03,30,08,05,4.50
2019,03,30,08,06,4.50
2019,03,30,08,07,4.60
2019,03,30,08,08,4.60
2019,03,30,08,09,4.70
2019,03,30,08,10,4.80
2019,03,30,08,11,4.90
2019,03,30,08,12,4.90
2019,03,30,08,13,5.00
2019,03,30,08,14,5.00
2019,03,30,08,15,5.10
2019,03,30,08,16,5.10
2019,03,30,08,17,5.10
2019,03,30,08,18,5.10
2019,03,30,08,19,5.10
2019,03,30,08,20,5.20
2019,03,30,08,21,5.20
2019,03,30,08,22,5.20
2019,03,30,08,23,5.20
2019,03,30,08,24,5.20
2019,03,30,08,25,5.20
2019,03,30,08,26,5.30
2019,03,30,08,27,5.30
2019,03,30,08,28,5.30
2019,03,30,08,29,5.40
2019,03,30,08,30,5.40
2019,03,30,08,31,5.40
2019,03,30,08,32,5.50
2019,03,30,08,33,5.50
2019,03,30,08,34,5.60
2019,03,30,08,35,5.60
2019,03,30,08,36,5.60
2019,03,30,08,37,5.70
2019,03,30,08,38,5.70
2019,03,30,08,39,5.80
2019,03,30,08,40,5.80
2019,03,30,08,41,5.90
2019,03,30,08,42,6.00
2019,03,30,08,43,6.10
2019,03,30,08,44,6.10
2019,03,30,08,45,6.20
2019,03,30,08,46,6.30
2019,03,30,08,47,6.30
2019,03,30,08,48,6.40
2019,03,30,08,49,6.40
2019,03,30,08,50,6.50
2019,03,30,08,51,6.60
2019,03,30,08,52,6.60
2019,03,30,08,53,6.70
2019,03,30,08,54,6.70
2019,03,30,08,55,6.80
2019,03,30,08,56,6.80
2019,03,30,08,57,6.80
2019,03,30,08,58,6.90
2019,03,30,08,59,7.00
2019,03,30,09,00,7.00
2019,03,30,09,01,7.10
2019,03,30,09,02,7.20
2019,03,30,09,03,7.20
2019,03,30,09,04,7.30
2019,03,30,09,05,7.40
2019,03,30,09,06,7.50
2019,03,30,09,07,7.50
2019,03,30,09,08,7.60
2019,03,30,09,09,7.60
2019,03,30,09,10,7.70
2019,03,30,09,11,7.70
2019,03,30,09,12,7.80
2019,03,30,09,13,7.90
2019,03,30,09,14,7.90
2019,03,30,09,15,7.90
2019,03,30,09,16,8.00
2019,03,30,09,17,8.00
2019,03,30,09,18,8.10
2019,03,30,09,19,8.10
2019,03,30,09,20,8.10
2019,03,30,09,21,8.20
2019,03,30,09,22,8.20
2019,03,30,09,23,8.30
2019,03,30,09,24,8.40
2019,03,30,09,25,8.40
2019,03,30,09,26,8.50
2019,03,30,09,27,8.60
2019,03,30,09,28,8.70
2019,03,30,09,29,8.70
2019,03,30,09,30,8.80
2019,03,30,09,31,8.80
2019,03,30,09,32,8.80
2019,03,30,09,33,8.80
2019,03,30,09,34,8.80
2019,03,30,09,35,8.80
2019,03,30,09,36,8.80
2019,03,30,09,37,8.80
2019,03,30,09,38,8.80
2019,03,30,09,39,8.90
2019,03,30,09,40,8.90
2019,03,30,09,41,8.90
2019,03,30,09,42,8.90
2019,03,30,09,43,8.90
2019,03,30,09,44,8.90
2019,03,30,09,45,8.90
2019,03,30,09,46,8.90
2019,03,30,09,47,8.80
2019,03,30,09,48,8.70
2019,03,30,09,49,8.70
2019,03,30,09,50,8.60
2019,03,30,09,51,8.60
2019,03,30,09,52,8.60
2019,03,30,09,53,8.60
2019,03,30,09,54,8.60
2019,03,30,09,55,8.50
2019,03,30,09,56,8.60
2019,03,30,09,57,8.60
2019,03,30,09,58,8.60
2019,03,30,09,59,8.60
2019,03,30,10,00,8.60
2019,03,30,10,01,8.60
2019,03,30,10,02,8.60
2019,03,30,10,03,8.60
2019,03,30,10,04,8.70
2019,03,30,10,05,8.70
2019,03,30,10,06,8.70
2019,03,30,10,07,8.70
2019,03,30,10,08,8.70
2019,03,30,10,09,8.80
2019,03,30,10,10,8.80
2019,03,30,10,11,8.80
2019,03,30,10,12,8.90
2019,03,30,10,13,8.90
2019,03,30,10,14,9.00
2019,03,30,10,15,9.00
2019,03,30,10,16,9.10
2019,03,30,10,17,9.10
2019,03,30,10,18,9.10
2019,03,30,10,19,9.20
2019,03,30,10,20,9.20
2019,03,30,10,21,9.30
2019,03,30,10,22,9.30
2019,03,30,10,23,9.40
2019,03,30,10,24,9.40
2019,03,30,10,25,9.50
2019,03,30,10,26,9.50
2019,03,30,10,27,9.60
2019,03,30,10,28,9.70
2019,03,30,10,29,9.80
2019,03,30,10,30,9.80
2019,03,30,10,31,9.80
2019,03,30,10,32,9.80
2019,03,30,10,33,9.80
2019,03,30,10,34,9.90
2019,03,30,10,35,9.90
2019,03,30,10,36,9.90
2019,03,30,10,37,10.00
2019,03,30,10,38,10.00
2019,03,30,10,39,10.00
2019,03,30,10,40,10.00
2019,03,30,10,41,10.00
2019,03,30,10,42,9.90
2019,03,30,10,43,9.90
2019,03,30,10,44,9.80
2019,03,30,10,45,9.70
2019,03,30,10,46,9.70
2019,03,30,10,47,9.70
2019,03,30,10,48,9.70
2019,03,30,10,49,9.80
2019,03,30,10,50,9.70
2019,03,30,10,51,9.70
2019,03,30,10,52,9.70
2019,03,30,10,53,9.70
2019,03,30,10,54,9.70
2019,03,30,10,55,9.70
2019,03,30,10,56,9.70
2019,03,30,10,57,9.70
2019,03,30,10,58,9.70
2019,03,30,10,59,9.80
2019,03,30,11,00,9.80
2019,03,30,11,01,9.90
2019,03,30,11,02,9.90
2019,03,30,11,03,10.00
2019,03,30,11,04,10.10
2019,03,30,11,05,10.20
2019,03,30,11,06,10.20
2019,03,30,11,07,10.30
2019,03,30,11,08,10.40
2019,03,30,11,09,10.40
2019,03,30,11,10,10.40
2019,03,30,11,11,10.40
2019,03,30,11,12,10.40
2019,03,30,11,13,10.30
2019,03,30,11,14,10.30
2019,03,30,11,15,10.20
2019,03,30,11,16,10.20
2019,03,30,11,17,10.20
2019,03,30,11,18,10.20
2019,03,30,11,19,10.20
2019,03,30,11,20,10.20
2019,03,30,11,21,10.20
2019,03,30,11,22,10.20
2019,03,30,11,23,10.30
2019,03,30,11,24,10.30
2019,03,30,11,25,10.30
2019,03,30,11,26,10.40
2019,03,30,11,27,10.50
2019,03,30,11,28,10.60
2019,03,30,11,29,10.70
2019,03,30,11,30,10.70
2019,03,30,11,31,10.70
2019,03,30,11,32,10.80
2019,03,30,11,33,10.80
2019,03,30,11,34,10.90
2019,03,30,11,35,10.90
2019,03,30,11,36,10.90
2019,03,30,11,37,10.90
2019,03,30,11,38,10.90
2019,03,30,11,39,10.90
2019,03,30,11,40,10.90
2019,03,30,11,41,10.90
2019,03,30,11,42,10.90
2019,03,30,11,43,10.90
2019,03,30,11,44,10.90
2019,03,30,11,45,10.90
2019,03,30,11,46,10.90
2019,03,30,11,47,10.90
2019,03,30,11,48,11.00
2019,03,30,11,49,10.90
2019,03,30,11,50,10.90
2019,03,30,11,51,10.90
2019,03,30,11,52,10.90
2019,03,30,11,53,10.90
2019,03,30,11,54,11.00
2019,03,30,11,55,11.00
2019,03,30,11,56,11.10
2019,03,30,11,57,11.10
2019,03,30,11,58,11.10
2019,03,30,11,59,11.20
2019,03,30,12,00,11.30
2019,03,30,12,01,11.30
2019,03,30,12,02,11.40
2019,03,30,12,03,11.40
2019,03,30,12,04,11.50
2019,03,30,12,05,11.50
2019,03,30,12,06,11.60
2019,03,30,12,07,11.60
2019,03,30,12,08,11.60
2019,03,30,12,09,11.60
2019,03,30,12,10,11.60
2019,03,30,12,11,11.60
2019,03,30,12,12,11.60
2019,03,30,12,13,11.60
2019,03,30,12,14,11.60
2019,03,30,12,15,11.60
2019,03,30,12,16,11.60
2019,03,30,12,17,11.60
2019,03,30,12,18,11.50
2019,03,30,12,19,11.50
2019,03,30,12,20,11.50
2019,03,30,12,21,11.50
2019,03,30,12,22,11.50
2019,03,30,12,23,11.50
2019,03,30,12,24,11.50
2019,03,30,12,25,11.50
2019,03,30,12,26,11.50
2019,03,30,12,27,11.50
2019,03,30,12,28,11.50
2019,03,30,12,29,11.40
2019,03,30,12,30,11.40
2019,03,30,12,31,11.40
2019,03,30,12,32,11.40
2019,03,30,12,33,11.30
2019,03,30,12,34,11.30
2019,03,30,12,35,11.30
2019,03,30,12,36,11.40
2019,03,30,12,37,11.40
2019,03,30,12,38,11.50
2019,03,30,12,39,11.50
2019,03,30,12,40,11.60
2019,03,30,12,41,11.50
2019,03,30,12,42,11.50
2019,03,30,12,43,11.50
2019,03,30,12,44,11.50
2019,03,30,12,45,11.60
2019,03,30,12,46,11.60
2019,03,30,12,47,11.60
2019,03,30,12,48,11.60
2019,03,30,12,49,11.60
2019,03,30,12,50,11.60
2019,03,30,12,51,11.60
2019,03,30,12,52,11.60
2019,03,30,12,53,11.60
2019,03,30,12,54,11.60
2019,03,30,12,55,11.70
2019,03,30,12,56,11.70
2019,03,30,12,57,11.70
2019,03,30,12,58,11.70
2019,03,30,12,59,11.80
2019,03,30,13,00,11.80
2019,03,30,13,01,11.90
2019,03,30,13,02,11.90
2019,03,30,13,03,11.90
2019,03,30,13,04,11.90
2019,03,30,13,05,11.80
2019,03,30,13,06,11.80
2019,03,30,13,07,11.70
2019,03,30,13,08,11.70
2019,03,30,13,09,11.70
2019,03,30,13,10,11.70
2019,03,30,13,11,11.60
2019,03,30,13,12,11.60
2019,03,30,13,13,11.50
2019,03,30,13,14,11.50
2019,03,30,13,15,11.50
2019,03,30,13,16,11.50
2019,03,30,13,17,11.60
2019,03,30,13,18,11.60
2019,03,30,13,19,11.60
2019,03,30,13,20,11.60
2019,03,30,13,21,11.60
2019,03,30,13,22,11.60
2019,03,30,13,23,11.60
2019,03,30,13,24,11.60
2019,03,30,13,25,11.60
2019,03,30,13,26,11.60
2019,03,30,13,27,11.60
2019,03,30,13,28,11.60
2019,03,30,13,29,11.60
2019,03,30,13,30,11.60
2019,03,30,13,31,11.70
2019,03,30,13,32,11.80
2019,03,30,13,33,11.80
2019,03,30,13,34,11.90
2019,03,30,13,35,12.00
2019,03,30,13,36,12.00
2019,03,30,13,37,12.00
2019,03,30,13,38,12.00
2019,03,30,13,39,11.90
2019,03,30,13,40,11.80
2019,03,30,13,41,11.80
2019,03,30,13,42,11.80
2019,03,30,13,43,11.80
2019,03,30,13,44,11.80
2019,03,30,13,45,11.90
2019,03,30,13,46,11.90
2019,03,30,13,47,11.90
2019,03,30,13,48,11.90
2019,03,30,13,49,11.90
2019,03,30,13,50,11.90
2019,03,30,13,51,11.90
2019,03,30,13,52,11.90
2019,03,30,13,53,11.90
2019,03,30,13,54,11.90
2019,03,30,13,55,11.80
2019,03,30,13,56,11.80
2019,03,30,13,57,11.90
2019,03,30,13,58,11.80
2019,03,30,13,59,11.80
2019,03,30,14,00,11.90
2019,03,30,14,01,12.00
2019,03,30,14,02,12.10
2019,03,30,14,03,12.20
2019,03,30,14,04,12.30
2019,03,30,14,05,12.40
2019,03,30,14,06,12.40
2019,03,30,14,07,12.50
2019,03,30,14,08,12.50
2019,03,30,14,09,12.60
2019,03,30,14,10,12.70
2019,03,30,14,11,12.70
2019,03,30,14,12,12.60
2019,03,30,14,13,12.60
2019,03,30,14,14,12.50
2019,03,30,14,15,12.40
2019,03,30,14,16,12.30
2019,03,30,14,17,12.40
2019,03,30,14,18,12.30
2019,03,30,14,19,12.30
2019,03,30,14,20,12.30
2019,03,30,14,21,12.40
2019,03,30,14,22,12.40
2019,03,30,14,23,12.50
2019,03,30,14,24,12.60
2019,03,30,14,25,12.60
2019,03,30,14,26,12.60
2019,03,30,14,27,12.60
2019,03,30,14,28,12.50
2019,03,30,14,29,12.50
2019,03,30,14,30,12.40
2019,03,30,14,31,12.40
2019,03,30,14,32,12.40
2019,03,30,14,33,12.40
2019,03,30,14,34,12.40
2019,03,30,14,35,12.40
2019,03,30,14,36,12.40
2019,03,30,14,37,12.40
2019,03,30,14,38,12.30
2019,03,30,14,39,12.30
2019,03,30,14,40,12.40
2019,03,30,14,41,12.30
2019,03,30,14,42,12.30
2019,03,30,14,43,12.30
2019,03,30,14,44,12.30
2019,03,30,14,45,12.40
2019,03,30,14,46,12.40
2019,03,30,14,47,12.40
2019,03,30,14,48,12.40
2019,03,30,14,49,12.40
2019,03,30,14,50,12.40
2019,03,30,14,51,12.30
2019,03,30,14,52,12.30
2019,03,30,14,53,12.30
2019,03,30,14,54,12.30
2019,03,30,14,55,12.30
2019,03,30,14,56,12.30
2019,03,30,14,57,12.30
2019,03,30,14,58,12.30
2019,03,30,14,59,12.30
2019,03,30,15,00,12.30
2019,03,30,15,01,12.30
2019,03,30,15,02,12.30
2019,03,30,15,03,12.30
2019,03,30,15,04,12.40
2019,03,30,15,05,12.50
2019,03,30,15,06,12.60
2019,03,30,15,07,12.70
2019,03,30,15,08,12.70
2019,03,30,15,09,12.80
2019,03,30,15,10,12.80
2019,03,30,15,11,12.90
2019,03,30,15,12,12.90
2019,03,30,15,13,13.00
2019,03,30,15,14,13.10
2019,03,30,15,15,13.10
2019,03,30,15,16,13.10
2019,03,30,15,17,13.10
2019,03,30,15,18,13.10
2019,03,30,15,19,13.10
2019,03,30,15,20,13.10
2019,03,30,15,21,13.10
2019,03,30,15,22,13.10
2019,03,30,15,23,13.20
2019,03,30,15,24,13.20
2019,03,30,15,25,13.20
2019,03,30,15,26,13.20
2019,03,30,15,27,13.20
2019,03,30,15,28,13.30
2019,03,30,15,29,13.30
2019,03,30,15,30,13.40
2019,03,30,15,31,13.40
2019,03,30,15,32,13.40
2019,03,30,15,33,13.50
2019,03,30,15,34,13.50
2019,03,30,15,35,13.60
2019,03,30,15,36,13.60
2019,03,30,15,37,13.60
2019,03,30,15,38,13.60
2019,03,30,15,39,13.70
2019,03,30,15,40,13.70
2019,03,30,15,41,13.70
2019,03,30,15,42,13.80
2019,03,30,15,43,13.80
2019,03,30,15,44,13.80
2019,03,30,15,45,13.90
2019,03,30,15,46,13.90
2019,03,30,15,47,14.00
2019,03,30,15,48,14.00
2019,03,30,15,49,14.00
2019,03,30,15,50,14.00
2019,03,30,15,51,14.00
2019,03,30,15,52,14.00
2019,03,30,15,53,13.90
2019,03,30,15,54,13.90
2019,03,30,15,55,13.90
2019,03,30,15,56,13.90
2019,03,30,15,57,14.00
2019,03,30,15,58,14.00
2019,03,30,15,59,14.10
2019,03,30,16,00,14.20
2019,03,30,16,01,14.30
2019,03,30,16,02,14.40
2019,03,30,16,03,14.50
2019,03,30,16,04,14.50
2019,03,30,16,05,14.60
2019,03,30,16,06,14.60
2019,03,30,16,07,14.60
2019,03,30,16,08,14.60
2019,03,30,16,09,14.60
2019,03,30,16,10,14.60
2019,03,30,16,11,14.60
2019,03,30,16,12,14.60
2019,03,30,16,13,14.70
2019,03,30,16,14,14.70
2019,03,30,16,15,14.70
2019,03,30,16,16,14.70
2019,03,30,16,17,14.70
2019,03,30,16,18,14.70
2019,03,30,16,19,14.80
2019,03,30,16,20,14.80
2019,03,30,16,21,14.80
2019,03,30,16,22,14.80
2019,03,30,16,23,14.80
2019,03,30,16,24,14.70
2019,03,30,16,25,14.70
2019,03,30,16,26,14.70
2019,03,30,16,27,14.80
2019,03,30,16,28,14.80
2019,03,30,16,29,14.70
2019,03,30,16,30,14.70
2019,03,30,16,31,14.70
2019,03,30,16,32,14.70
2019,03,30,16,33,14.60
2019,03,30,16,34,14.60
2019,03,30,16,35,14.60
2019,03,30,16,36,14.60
2019,03,30,16,37,14.60
2019,03,30,16,38,14.60
2019,03,30,16,39,14.60
2019,03,30,16,40,14.60
2019,03,30,16,41,14.70
2019,03,30,16,42,14.70
2019,03,30,16,43,14.70
2019,03,30,16,44,14.70
2019,03,30,16,45,14.70
2019,03,30,16,46,14.70
2019,03,30,16,47,14.70
2019,03,30,16,48,14.70
2019,03,30,16,49,14.70
2019,03,30,16,50,14.80
2019,03,30,16,51,14.80
2019,03,30,16,52,14.80
2019,03,30,16,53,14.80
2019,03,30,16,54,14.80
2019,03,30,16,55,14.80
2019,03,30,16,56,14.80
2019,03,30,16,57,14.80
2019,03,30,16,58,14.80
2019,03,30,16,59,14.80
2019,03,30,17,00,14.80
2019,03,30,17,01,14.80
2019,03,30,17,02,14.90
2019,03,30,17,03,14.90
2019,03,30,17,04,14.90
2019,03,30,17,05,14.90
2019,03,30,17,06,14.90
2019,03,30,17,07,14.90
2019,03,30,17,08,14.90
2019,03,30,17,09,14.90
2019,03,30,17,10,14.80
2019,03,30,17,11,14.80
2019,03,30,17,12,14.80
2019,03,30,17,13,14.80
2019,03,30,17,14,14.90
2019,03,30,17,15,14.90
2019,03,30,17,16,14.90
2019,03,30,17,17,14.90
2019,03,30,17,18,14.90
2019,03,30,17,19,14.90
2019,03,30,17,20,14.90
2019,03,30,17,21,15.00
2019,03,30,17,22,15.00
2019,03,30,17,23,15.00
2019,03,30,17,24,15.00
2019,03,30,17,25,15.10
2019,03,30,17,26,15.10
2019,03,30,17,27,15.10
2019,03,30,17,28,15.10
2019,03,30,17,29,15.10
2019,03,30,17,30,15.10
2019,03,30,17,31,15.10
2019,03,30,17,32,15.10
2019,03,30,17,33,15.20
2019,03,30,17,34,15.20
2019,03,30,17,35,15.20
2019,03,30,17,36,15.20
2019,03,30,17,37,15.10
2019,03,30,17,38,15.10
2019,03,30,17,39,15.10
2019,03,30,17,40,15.00
2019,03,30,17,41,15.00
2019,03,30,17,42,15.00
2019,03,30,17,43,14.90
2019,03,30,17,44,14.90
2019,03,30,17,45,14.90
2019,03,30,17,46,14.80
2019,03,30,17,47,14.80
2019,03,30,17,48,14.70